Time,TemperatureF,DewpointF,PressureIn,WindDirection,WindDirectionDegrees,WindSpeedMPH,WindSpeedGustMPH,Humidity,HourlyPrecipIn,Conditions,Clouds,dailyrainin,SoftwareType,DateUTC
2013-01-23 00:02:00,16.0,0.0,-100.00,NNW,330,1.0,2.0,49,-99.99,,,-99.99,,2013-01-23 06:02:00,
2013-01-23 00:12:00,16.0,0.0,-100.00,NNW,335,2.0,3.0,49,-99.99,,,-99.99,,2013-01-23 06:12:00,
2013-01-23 00:22:00,16.0,0.0,-100.00,NNW,335,2.0,3.0,49,-99.99,,,-99.99,,2013-01-23 06:22:00,
2013-01-23 00:32:00,16.0,0.0,-100.00,NNW,335,2.0,3.0,49,-99.99,,,-99.99,,2013-01-23 06:32:00,
2013-01-23 00:43:00,16.0,0.0,-100.00,NNW,345,2.0,3.0,49,-99.99,,,-99.99,,2013-01-23 06:43:00,
2013-01-23 00:53:00,16.0,1.0,-100.00,North,5,3.0,6.0,50,-99.99,,,-99.99,,2013-01-23 06:53:00,
2013-01-23 01:02:00,16.0,1.0,-100.00,North,5,3.0,6.0,50,-99.99,,,-99.99,,2013-01-23 07:02:00,
2013-01-23 01:12:00,16.0,1.0,-100.00,NNE,25,2.0,3.0,50,-99.99,,,-99.99,,2013-01-23 07:12:00,
2013-01-23 01:22:00,16.0,0.0,-100.00,NNE,30,2.0,4.0,49,-99.99,,,-99.99,,2013-01-23 07:22:00,
2013-01-23 01:33:00,16.0,0.0,-100.00,East,85,1.0,2.0,49,-99.99,,,-99.99,,2013-01-23 07:33:00,
2013-01-23 01:42:00,16.0,0.0,-100.00,East,85,1.0,2.0,49,-99.99,,,-99.99,,2013-01-23 07:42:00,
2013-01-23 01:53:00,16.0,1.0,-100.00,SE,125,1.0,2.0,50,-99.99,,,-99.99,,2013-01-23 07:53:00,
2013-01-23 02:02:00,16.0,1.0,-100.00,SE,125,1.0,2.0,50,-99.99,,,-99.99,,2013-01-23 08:02:00,
2013-01-23 02:13:00,16.0,1.0,-100.00,SE,130,2.0,3.0,50,-99.99,,,-99.99,,2013-01-23 08:13:00,
2013-01-23 02:22:00,16.0,1.0,-100.00,SE,125,1.0,2.0,50,-99.99,,,-99.99,,2013-01-23 08:22:00,
2013-01-23 02:33:00,16.0,1.0,-100.00,SE,125,1.0,2.0,50,-99.99,,,-99.99,,2013-01-23 08:33:00,
2013-01-23 02:42:00,16.0,1.0,-100.00,South,170,2.0,3.0,50,-99.99,,,-99.99,,2013-01-23 08:42:00,
2013-01-23 02:53:00,16.0,1.0,-100.00,South,170,2.0,3.0,50,-99.99,,,-99.99,,2013-01-23 08:53:00,
2013-01-23 03:02:00,17.0,2.0,-100.00,South,190,4.0,6.0,51,-99.99,,,-99.99,,2013-01-23 09:02:00,
2013-01-23 03:12:00,17.0,2.0,-100.00,South,175,2.0,3.0,51,-99.99,,,-99.99,,2013-01-23 09:12:00,
2013-01-23 03:22:00,17.0,2.0,-100.00,South,190,1.0,2.0,51,-99.99,,,-99.99,,2013-01-23 09:22:00,
2013-01-23 03:32:00,17.0,2.0,-100.00,South,190,1.0,2.0,51,-99.99,,,-99.99,,2013-01-23 09:32:00,
2013-01-23 03:43:00,17.0,2.0,-100.00,South,190,4.0,6.0,51,-99.99,,,-99.99,,2013-01-23 09:43:00,
2013-01-23 03:53:00,17.0,2.0,-100.00,South,190,4.0,6.0,51,-99.99,,,-99.99,,2013-01-23 09:53:00,
2013-01-23 04:12:00,17.0,2.0,-100.00,South,175,3.0,6.0,52,-99.99,,,-99.99,,2013-01-23 10:12:00,
2013-01-23 04:23:00,17.0,2.0,-100.00,South,175,3.0,6.0,52,-99.99,,,-99.99,,2013-01-23 10:23:00,
2013-01-23 04:43:00,18.0,4.0,-100.00,ESE,120,2.0,3.0,53,-99.99,,,-99.99,,2013-01-23 10:43:00,
2013-01-23 04:53:00,17.0,3.0,-100.00,SE,145,1.0,2.0,54,-99.99,,,-99.99,,2013-01-23 10:53:00,
2013-01-23 05:02:00,17.0,3.0,-100.00,SE,145,1.0,2.0,54,-99.99,,,-99.99,,2013-01-23 11:02:00,
2013-01-23 05:12:00,17.0,3.0,-100.00,SE,145,1.0,2.0,54,-99.99,,,-99.99,,2013-01-23 11:12:00,
2013-01-23 05:23:00,17.0,3.0,-100.00,SSE,160,0.0,1.0,54,-99.99,,,-99.99,,2013-01-23 11:23:00,
2013-01-23 05:33:00,17.0,3.0,-100.00,SSE,160,0.0,1.0,54,-99.99,,,-99.99,,2013-01-23 11:33:00,
2013-01-23 05:43:00,17.0,4.0,-100.00,SSE,150,3.0,4.0,55,-99.99,,,-99.99,,2013-01-23 11:43:00,
2013-01-23 05:53:00,17.0,4.0,-100.00,SE,145,2.0,3.0,56,-99.99,,,-99.99,,2013-01-23 11:53:00,
2013-01-23 06:03:00,17.0,4.0,-100.00,SE,145,2.0,3.0,56,-99.99,,,-99.99,,2013-01-23 12:03:00,
2013-01-23 06:12:00,16.0,4.0,-100.00,SSE,165,3.0,4.0,57,-99.99,,,-99.99,,2013-01-23 12:12:00,
2013-01-23 06:22:00,16.0,4.0,-100.00,SSE,155,4.0,6.0,58,-99.99,,,-99.99,,2013-01-23 12:22:00,
2013-01-23 06:33:00,16.0,4.0,-100.00,SSE,155,4.0,6.0,58,-99.99,,,-99.99,,2013-01-23 12:33:00,
2013-01-23 06:43:00,16.0,4.0,-100.00,SSE,160,4.0,6.0,59,-99.99,,,-99.99,,2013-01-23 12:43:00,
2013-01-23 06:53:00,16.0,4.0,-100.00,SSE,165,6.0,8.0,59,-99.99,,,-99.99,,2013-01-23 12:53:00,
2013-01-23 07:02:00,15.0,5.0,-100.00,SSE,160,3.0,4.0,63,-99.99,,,-99.99,,2013-01-23 13:02:00,
2013-01-23 07:04:00,16.0,4.0,-100.00,SSE,165,6.0,8.0,59,-99.99,,,-99.99,,2013-01-23 13:04:00,
2013-01-23 07:13:00,16.0,4.0,-100.00,SSE,165,6.0,8.0,59,-99.99,,,-99.99,,2013-01-23 13:13:00,
2013-01-23 07:23:00,15.0,4.0,-100.00,SSE,160,6.0,8.0,61,-99.99,,,-99.99,,2013-01-23 13:23:00,
2013-01-23 07:33:00,15.0,5.0,-100.00,SSE,160,3.0,4.0,63,-99.99,,,-99.99,,2013-01-23 13:33:00,
2013-01-23 07:42:00,15.0,5.0,-100.00,SSE,160,3.0,4.0,63,-99.99,,,-99.99,,2013-01-23 13:42:00,
2013-01-23 07:53:00,15.0,5.0,-100.00,SSE,160,3.0,4.0,63,-99.99,,,-99.99,,2013-01-23 13:53:00,
2013-01-23 08:02:00,17.0,8.0,-100.00,SSE,160,6.0,6.0,66,-99.99,,,-99.99,,2013-01-23 14:02:00,
2013-01-23 08:12:00,15.0,5.0,-100.00,SSE,160,6.0,6.0,65,-99.99,,,-99.99,,2013-01-23 14:12:00,
2013-01-23 08:23:00,16.0,6.0,-100.00,South,170,4.0,6.0,65,-99.99,,,-99.99,,2013-01-23 14:23:00,
2013-01-23 08:33:00,16.0,6.0,-100.00,South,170,4.0,6.0,65,-99.99,,,-99.99,,2013-01-23 14:33:00,
2013-01-23 08:43:00,17.0,8.0,-100.00,SSE,160,6.0,6.0,66,-99.99,,,-99.99,,2013-01-23 14:43:00,
2013-01-23 08:53:00,17.0,8.0,-100.00,SSE,160,6.0,6.0,66,-99.99,,,-99.99,,2013-01-23 14:53:00,
2013-01-23 09:12:00,19.0,10.0,-100.00,SSE,155,8.0,10.0,66,-99.99,,,-99.99,,2013-01-23 15:12:00,
2013-01-23 09:23:00,19.0,10.0,-100.00,SSE,155,8.0,10.0,66,-99.99,,,-99.99,,2013-01-23 15:23:00,
2013-01-23 09:43:00,20.0,10.0,-100.00,SSE,155,10.0,12.0,64,-99.99,,,-99.99,,2013-01-23 15:43:00,
2013-01-23 09:53:00,21.0,9.0,-100.00,SSE,165,10.0,16.0,59,-99.99,,,-99.99,,2013-01-23 15:53:00,
2013-01-23 10:03:00,21.0,9.0,-100.00,SSE,165,10.0,16.0,59,-99.99,,,-99.99,,2013-01-23 16:03:00,
2013-01-23 10:12:00,22.0,9.0,-100.00,South,180,12.0,14.0,56,-99.99,,,-99.99,,2013-01-23 16:12:00,
2013-01-23 10:23:00,24.0,10.0,-100.00,South,170,8.0,11.0,55,-99.99,,,-99.99,,2013-01-23 16:23:00,
2013-01-23 10:33:00,25.0,10.0,-100.00,South,185,14.0,16.0,52,-99.99,,,-99.99,,2013-01-23 16:33:00,
2013-01-23 10:42:00,25.0,10.0,-100.00,South,185,14.0,16.0,52,-99.99,,,-99.99,,2013-01-23 16:42:00,
2013-01-23 10:53:00,25.0,10.0,-100.00,SSW,200,14.0,16.0,52,-99.99,,,-99.99,,2013-01-23 16:53:00,
2013-01-23 11:03:00,25.0,10.0,-100.00,SSW,200,14.0,16.0,52,-99.99,,,-99.99,,2013-01-23 17:03:00,
2013-01-23 11:12:00,26.0,10.0,-100.00,SSW,205,12.0,16.0,51,-99.99,,,-99.99,,2013-01-23 17:12:00,
2013-01-23 11:23:00,27.0,11.0,-100.00,SSW,205,11.0,16.0,50,-99.99,,,-99.99,,2013-01-23 17:23:00,
2013-01-23 11:33:00,27.0,11.0,-100.00,SSW,205,11.0,16.0,50,-99.99,,,-99.99,,2013-01-23 17:33:00,
2013-01-23 11:42:00,28.0,11.0,-100.00,SSW,210,11.0,14.0,49,-99.99,,,-99.99,,2013-01-23 17:42:00,
2013-01-23 11:53:00,29.0,12.0,-100.00,South,190,9.0,11.0,48,-99.99,,,-99.99,,2013-01-23 17:53:00,
2013-01-23 12:03:00,29.0,12.0,-100.00,South,190,9.0,11.0,48,-99.99,,,-99.99,,2013-01-23 18:03:00,
2013-01-23 12:12:00,30.0,13.0,-100.00,WSW,240,11.0,16.0,48,-99.99,,,-99.99,,2013-01-23 18:12:00,
2013-01-23 12:23:00,29.0,12.0,-100.00,SW,215,12.0,14.0,48,-99.99,,,-99.99,,2013-01-23 18:23:00,
2013-01-23 12:33:00,29.0,12.0,-100.00,SW,215,12.0,14.0,48,-99.99,,,-99.99,,2013-01-23 18:33:00,
2013-01-23 12:43:00,31.0,13.0,-100.00,SW,220,12.0,14.0,47,-99.99,,,-99.99,,2013-01-23 18:43:00,
2013-01-23 12:53:00,31.0,13.0,-100.00,SSW,200,9.0,11.0,47,-99.99,,,-99.99,,2013-01-23 18:53:00,
2013-01-23 13:03:00,31.0,13.0,-100.00,SSW,200,9.0,11.0,47,-99.99,,,-99.99,,2013-01-23 19:03:00,
2013-01-23 13:13:00,32.0,14.0,-100.00,SW,230,10.0,14.0,47,-99.99,,,-99.99,,2013-01-23 19:13:00,
2013-01-23 13:23:00,33.0,15.0,-100.00,WSW,240,11.0,14.0,46,-99.99,,,-99.99,,2013-01-23 19:23:00,
2013-01-23 13:33:00,33.0,15.0,-100.00,WSW,240,11.0,14.0,46,-99.99,,,-99.99,,2013-01-23 19:33:00,
2013-01-23 13:43:00,34.0,15.0,-100.00,WSW,240,10.0,12.0,45,-99.99,,,-99.99,,2013-01-23 19:43:00,
2013-01-23 13:53:00,34.0,14.0,-100.00,WSW,240,14.0,14.0,44,-99.99,,,-99.99,,2013-01-23 19:53:00,
2013-01-23 14:03:00,34.0,14.0,-100.00,WSW,240,14.0,14.0,44,-99.99,,,-99.99,,2013-01-23 20:03:00,
2013-01-23 14:13:00,35.0,15.0,-100.00,WSW,245,10.0,11.0,43,-99.99,,,-99.99,,2013-01-23 20:13:00,
2013-01-23 14:23:00,35.0,15.0,-100.00,WSW,245,10.0,11.0,43,-99.99,,,-99.99,,2013-01-23 20:23:00,
2013-01-23 14:33:00,35.0,15.0,-100.00,WSW,250,12.0,16.0,44,-99.99,,,-99.99,,2013-01-23 20:33:00,
2013-01-23 14:43:00,35.0,15.0,-100.00,WSW,250,12.0,16.0,44,-99.99,,,-99.99,,2013-01-23 20:43:00,
2013-01-23 14:54:00,36.0,16.0,-100.00,WSW,250,17.0,19.0,43,-99.99,,,-99.99,,2013-01-23 20:54:00,
2013-01-23 15:03:00,36.0,16.0,-100.00,WSW,250,17.0,19.0,43,-99.99,,,-99.99,,2013-01-23 21:03:00,
2013-01-23 15:12:00,38.0,16.0,-100.00,West,260,14.0,16.0,41,-99.99,,,-99.99,,2013-01-23 21:12:00,
2013-01-23 15:23:00,38.0,16.0,-100.00,West,270,14.0,17.0,41,-99.99,,,-99.99,,2013-01-23 21:23:00,
2013-01-23 15:33:00,38.0,16.0,-100.00,West,270,14.0,17.0,41,-99.99,,,-99.99,,2013-01-23 21:33:00,
2013-01-23 15:43:00,38.0,16.0,-100.00,West,265,16.0,17.0,40,-99.99,,,-99.99,,2013-01-23 21:43:00,
2013-01-23 15:53:00,38.0,16.0,-100.00,West,265,16.0,17.0,40,-99.99,,,-99.99,,2013-01-23 21:53:00,
2013-01-23 16:02:00,38.0,16.0,-100.00,West,265,16.0,17.0,40,-99.99,,,-99.99,,2013-01-23 22:02:00,
2013-01-23 16:12:00,38.0,16.0,-100.00,West,280,14.0,14.0,41,-99.99,,,-99.99,,2013-01-23 22:12:00,
2013-01-23 16:23:00,38.0,16.0,-100.00,West,270,16.0,19.0,41,-99.99,,,-99.99,,2013-01-23 22:23:00,
2013-01-23 16:33:00,38.0,16.0,-100.00,West,270,16.0,19.0,41,-99.99,,,-99.99,,2013-01-23 22:33:00,
2013-01-23 16:42:00,38.0,16.0,-100.00,WNW,290,14.0,18.0,41,-99.99,,,-99.99,,2013-01-23 22:42:00,
2013-01-23 16:53:00,36.0,16.0,-100.00,WNW,290,14.0,19.0,43,-99.99,,,-99.99,,2013-01-23 22:53:00,
2013-01-23 17:03:00,36.0,16.0,-100.00,WNW,290,14.0,19.0,43,-99.99,,,-99.99,,2013-01-23 23:03:00,
2013-01-23 17:12:00,36.0,17.0,-100.00,West,275,11.0,14.0,46,-99.99,,,-99.99,,2013-01-23 23:12:00,
2013-01-23 17:23:00,35.0,16.0,-100.00,West,275,12.0,14.0,46,-99.99,,,-99.99,,2013-01-23 23:23:00,
2013-01-23 17:33:00,35.0,16.0,-100.00,West,275,12.0,14.0,46,-99.99,,,-99.99,,2013-01-23 23:33:00,
2013-01-23 17:43:00,34.0,17.0,-100.00,WNW,295,10.0,12.0,50,-99.99,,,-99.99,,2013-01-23 23:43:00,
2013-01-23 17:53:00,33.0,17.0,-100.00,WNW,290,12.0,14.0,51,-99.99,,,-99.99,,2013-01-23 23:53:00,
2013-01-23 18:03:00,33.0,17.0,-100.00,WNW,290,12.0,14.0,51,-99.99,,,-99.99,,2013-01-24 00:03:00,
2013-01-23 18:12:00,33.0,17.0,-100.00,WNW,300,14.0,17.0,52,-99.99,,,-99.99,,2013-01-24 00:12:00,
2013-01-23 18:22:00,32.0,17.0,-100.00,WNW,285,11.0,14.0,53,-99.99,,,-99.99,,2013-01-24 00:22:00,
2013-01-23 18:32:00,32.0,17.0,-100.00,WNW,285,11.0,14.0,53,-99.99,,,-99.99,,2013-01-24 00:32:00,
2013-01-23 18:42:00,32.0,18.0,-100.00,WNW,290,10.0,12.0,55,-99.99,,,-99.99,,2013-01-24 00:42:00,
2013-01-23 18:53:00,31.0,18.0,-100.00,WNW,300,10.0,11.0,57,-99.99,,,-99.99,,2013-01-24 00:53:00,
2013-01-23 19:03:00,31.0,18.0,-100.00,WNW,300,10.0,11.0,57,-99.99,,,-99.99,,2013-01-24 01:03:00,
2013-01-23 19:12:00,31.0,18.0,-100.00,WNW,300,10.0,11.0,57,-99.99,,,-99.99,,2013-01-24 01:12:00,
2013-01-23 19:23:00,30.0,18.0,-100.00,WNW,290,9.0,10.0,60,-99.99,,,-99.99,,2013-01-24 01:23:00,
2013-01-23 19:33:00,30.0,18.0,-100.00,WNW,290,9.0,10.0,60,-99.99,,,-99.99,,2013-01-24 01:33:00,
2013-01-23 19:42:00,30.0,19.0,-100.00,WNW,285,10.0,12.0,63,-99.99,,,-99.99,,2013-01-24 01:42:00,
2013-01-23 19:52:00,31.0,19.0,-100.00,NW,320,17.0,21.0,60,-99.99,,,-99.99,,2013-01-24 01:52:00,
2013-01-23 20:02:00,31.0,19.0,-100.00,NW,320,17.0,21.0,60,-99.99,,,-99.99,,2013-01-24 02:02:00,
2013-01-23 20:12:00,30.0,18.0,-100.00,NW,320,19.0,21.0,60,-99.99,,,-99.99,,2013-01-24 02:12:00,
2013-01-23 20:22:00,30.0,17.0,-100.00,NW,325,21.0,24.0,59,-99.99,,,-99.99,,2013-01-24 02:22:00,
2013-01-23 20:33:00,30.0,17.0,-100.00,NW,325,21.0,24.0,59,-99.99,,,-99.99,,2013-01-24 02:33:00,
2013-01-23 20:42:00,30.0,17.0,-100.00,NW,325,21.0,24.0,59,-99.99,,,-99.99,,2013-01-24 02:42:00,
2013-01-23 21:12:00,29.0,16.0,-100.00,NW,320,24.0,26.0,57,-99.99,,,-99.99,,2013-01-24 03:12:00,
2013-01-23 21:22:00,29.0,16.0,-100.00,NW,320,24.0,26.0,57,-99.99,,,-99.99,,2013-01-24 03:22:00,
2013-01-23 21:53:00,27.0,14.0,-100.00,NW,325,24.0,32.0,57,-99.99,,,-99.99,,2013-01-24 03:53:00,
2013-01-23 22:02:00,27.0,14.0,-100.00,NW,325,24.0,32.0,57,-99.99,,,-99.99,,2013-01-24 04:02:00,
2013-01-23 22:12:00,27.0,14.0,-100.00,NW,325,23.0,27.0,57,-99.99,,,-99.99,,2013-01-24 04:12:00,
2013-01-23 22:22:00,27.0,13.0,-100.00,NNW,330,31.0,34.0,54,-99.99,,,-99.99,,2013-01-24 04:22:00,
2013-01-23 22:32:00,27.0,13.0,-100.00,NNW,330,31.0,34.0,54,-99.99,,,-99.99,,2013-01-24 04:32:00,
2013-01-23 22:42:00,26.0,12.0,-100.00,NW,315,29.0,34.0,54,-99.99,,,-99.99,,2013-01-24 04:42:00,
2013-01-23 22:53:00,25.0,9.0,-100.00,NNW,330,24.0,27.0,51,-99.99,,,-99.99,,2013-01-24 04:53:00,
2013-01-23 23:03:00,25.0,9.0,-100.00,NNW,330,24.0,27.0,51,-99.99,,,-99.99,,2013-01-24 05:03:00,
2013-01-23 23:12:00,25.0,10.0,-100.00,NNW,330,25.0,29.0,52,-99.99,,,-99.99,,2013-01-24 05:12:00,
2013-01-23 23:22:00,24.0,10.0,-100.00,NNW,330,23.0,27.0,54,-99.99,,,-99.99,,2013-01-24 05:22:00,
2013-01-23 23:32:00,22.0,8.0,-100.00,NNW,330,19.0,23.0,55,-99.99,,,-99.99,,2013-01-24 05:32:00,
2013-01-23 23:33:00,24.0,10.0,-100.00,NNW,330,23.0,27.0,54,-99.99,,,-99.99,,2013-01-24 05:33:00,
2013-01-23 23:42:00,24.0,10.0,-100.00,NNW,340,17.0,21.0,54,-99.99,,,-99.99,,2013-01-24 05:42:00,
2013-01-23 23:53:00,23.0,8.0,-100.00,NNW,345,23.0,31.0,53,-99.99,,,-99.99,,2013-01-24 05:53:00,